[[{"header":{"parameterUnit":"m.s-1","parameterCategory":1,"la1":30.2992,"la2":30.254,"lo1":-89.0895,"lo2":-89.0443,"dy":0.0025,"dx":0.0025,"nx":19,"ny":19,"refTime":"2026-04-02T21:00:00:Z","depth":0,"parameterNumber":2,"parameterNumberName":"U-component_of_WINDS"},"data":[0,0,0,-4.4697,-4.4698,-4.4757,-4.4757,-4.4837,-4.4837,0,0,0,0,0,0,0,0,0,0,0,-4.4683,-4.4683,-4.4697,-4.4698,-4.4757,-4.4757,-4.4836,-4.4837,0,0,0,0,0,0,0,0,0,0,0,-4.4682,-4.4683,-4.4684,-4.4698,-4.4756,-4.4757,-4.4836,-4.479,0,0,0,0,0,0,0,0,0,0,-4.4733,-4.4722,-4.4683,-4.4684,-4.4699,-4.4756,-4.4757,-4.4788,-4.4793,-4.4812,0,-4.483,0,-4.4835,-4.4843,-4.4843,0,0,0,-4.4696,-4.4718,-4.4731,-4.4684,-4.4699,-4.4756,-4.4729,-4.4791,-4.4797,-4.4819,-4.4832,-4.4834,-4.4837,-4.4844,-4.4844,-4.4965,-4.4966,0,0,-4.4692,-4.4694,-4.4727,-4.4735,-4.4727,-4.4728,-4.4731,-4.4794,-4.4807,-4.4832,-4.4836,-4.4838,-4.4844,-4.4845,-4.4964,-4.4965,0,0,0,-4.4685,-4.4692,-4.4704,-4.4732,-4.4742,-4.4729,-4.4734,-4.4805,-4.4808,-4.4837,-4.4839,-4.4845,-4.4846,-4.4963,-4.4965,-4.4999,0,0,0,-4.4683,-4.4688,-4.4703,-4.4704,-4.4741,-4.4774,-4.4743,-4.4804,-4.4811,-4.4839,-4.4845,-4.4847,-4.4963,-4.4964,-4.4996,-4.5013,0,0,0,-4.4678,-4.4687,-4.4697,-4.4704,-4.473,-4.4773,-4.478,-4.4805,-4.4812,-4.4843,-4.4847,-4.4962,-4.4964,-4.4994,-4.501,-4.5044,0,0,0,-4.4672,-4.4726,-4.4697,-4.4759,-4.4729,-4.4795,-4.478,-4.4829,-4.486,-4.4845,-4.4963,-4.4964,-4.4993,-4.5007,-4.5042,-4.5072,-4.5085,0,0,-4.4741,-4.4734,-4.4771,-4.4747,-4.4818,-4.4786,-4.4863,-4.4889,-4.489,-4.494,-4.4943,-4.4997,-4.5009,-4.5044,-4.5166,-4.5176,0,0,0,-4.4793,-4.4818,-4.4837,-4.4867,-4.489,-4.4911,-4.4925,-4.4936,-4.4978,-4.4916,-4.5021,-4.5028,-4.5048,-4.5062,-4.5071,-4.5088,-4.4972,-4.4972,-4.4972,-4.4889,-4.489,-4.495,-4.4958,-4.4988,-4.5004,-4.5028,-4.5045,-4.5035,-4.5061,-4.5073,-4.5148,-4.5164,-4.5171,-4.5188,-4.5092,-4.5093,-4.5093,-4.5093,-4.4988,-4.5023,-4.5013,-4.5066,-4.5067,-4.5112,-4.5132,-4.5125,-4.5166,-4.5137,-4.5155,-4.512,-4.5183,-4.5198,-4.5095,-4.5095,-4.5095,-4.5094,-4.5094,-4.5048,-4.5065,-4.5078,-4.5123,-4.5159,-4.5167,-4.5208,-4.5208,-4.5208,-4.5226,-4.5239,-4.5238,-4.5235,-4.5233,-4.5233,-4.5234,-4.5234,-4.5234,-4.5234,-4.5103,-4.5117,-4.5152,-4.5184,-4.5204,-4.5231,-4.5252,-4.5272,-4.5293,-4.529,-4.529,-4.5277,-4.519,-4.5166,-4.5238,-4.5237,-4.5237,-4.5236,-4.5236,-4.5195,-4.5175,-4.5229,-4.525,-4.5288,-4.5323,-4.5325,-4.5366,-4.5383,-4.5403,-4.539,-4.5326,-4.5318,-4.5311,-4.5291,-4.539,-4.539,-4.539,-4.539,-4.5243,-4.5241,-4.5297,-4.533,-4.5363,-4.5371,-4.5432,-4.545,-4.5465,-4.5476,-4.5463,-4.5438,-4.5431,-4.5427,-4.5417,-4.5398,-4.5523,-4.5523,-4.5523,-4.5299,-4.5301,-4.5351,-4.5367,-4.5399,-4.5425,-4.5482,-4.5521,-4.5534,-4.5528,-4.5484,-4.5478,-4.5438,-4.5425,-4.5412,-4.5397,-4.5363,0,0]},{"header":{"parameterUnit":"m.s-1","parameterCategory":1,"la1":30.2992,"la2":30.254,"lo1":-89.0895,"lo2":-89.0443,"dy":0.0025,"dx":0.0025,"nx":19,"ny":19,"refTime":"2026-04-02T21:00:00:Z","depth":0,"parameterNumber":3,"parameterNumberName":"V-component_of_WINDS"},"data":[0,0,0,3.9791,3.9792,3.9867,3.9868,3.9936,3.9937,0,0,0,0,0,0,0,0,0,0,0,3.9753,3.9753,3.9791,3.9793,3.9867,3.9868,3.9936,3.9937,0,0,0,0,0,0,0,0,0,0,0,3.9753,3.9753,3.9753,3.9793,3.9867,3.9868,3.9936,3.9889,0,0,0,0,0,0,0,0,0,0,3.9821,3.977,3.9753,3.9753,3.9793,3.9867,3.9868,3.9887,3.9892,3.9891,0,3.9887,0,3.9913,3.994,3.994,0,0,0,3.9804,3.9766,3.9801,3.9753,3.9794,3.9867,3.9837,3.989,3.9896,3.9898,3.9888,3.9891,3.9914,3.994,3.994,3.9903,3.9903,0,0,3.98,3.9757,3.9797,3.9804,3.9792,3.9834,3.9839,3.9894,3.988,3.9888,3.9894,3.9915,3.994,3.9941,3.9904,3.9903,0,0,0,3.978,3.9754,3.9788,3.98,3.9816,3.9836,3.9841,3.9878,3.9893,3.9894,3.9916,3.9941,3.9941,3.9905,3.9904,3.983,0,0,0,3.9778,3.9743,3.9786,3.976,3.9815,3.9848,3.9823,3.9889,3.9897,3.9916,3.9941,3.9942,3.9906,3.9904,3.9834,3.9802,0,0,0,3.9754,3.974,3.9746,3.9758,3.9789,3.9848,3.9867,3.9892,3.9909,3.994,3.9942,3.9906,3.9905,3.9837,3.9807,3.9782,0,0,0,3.9714,3.9675,3.9744,3.9709,3.9788,3.9802,3.9867,3.9879,3.9896,3.9941,3.9906,3.9904,3.9838,3.9811,3.9785,3.9754,3.9736,0,0,3.9641,3.9665,3.9648,3.9712,3.9704,3.9794,3.9775,3.983,3.987,3.989,3.989,3.9833,3.9808,3.9783,3.9653,3.9638,0,0,0,3.9611,3.9599,3.9606,3.9622,3.9665,3.9701,3.9763,3.9785,3.9805,3.9872,3.9817,3.9804,3.9791,3.9778,3.9766,3.9759,3.9896,3.9896,3.9896,3.9445,3.9503,3.9481,3.9548,3.9563,3.9632,3.965,3.969,3.974,3.9727,3.9732,3.9647,3.963,3.9621,3.9613,3.972,3.972,3.9719,3.9719,3.9345,3.9338,3.9411,3.9416,3.9477,3.9481,3.9547,3.9584,3.9597,3.9646,3.9637,3.9686,3.9604,3.96,3.9714,3.9715,3.9716,3.9716,3.9717,3.9244,3.9251,3.928,3.9314,3.9333,3.9403,3.9415,3.9469,3.952,3.9512,3.9527,3.9528,3.9538,3.9515,3.9515,3.9515,3.9515,3.9514,3.9514,3.9127,3.9163,3.9166,3.9213,3.9234,3.9268,3.934,3.9362,3.94,3.9439,3.9439,3.9492,3.9585,3.9608,3.951,3.9511,3.9511,3.9512,3.9512,3.9005,3.9043,3.9048,3.9069,3.9132,3.915,3.9222,3.9262,3.9288,3.9293,3.935,3.9409,3.9436,3.9446,3.9466,3.9336,3.9336,3.9336,3.9336,3.892,3.8941,3.8962,3.8993,3.903,3.9097,3.9104,3.9161,3.9225,3.9245,3.9272,3.9303,3.931,3.9333,3.9346,3.9365,3.9212,3.9212,3.9212,3.885,3.8878,3.8872,3.8939,3.8993,3.9039,3.9048,3.9081,3.9162,3.9208,3.9263,3.9268,3.9318,3.9331,3.9376,3.9394,3.9431,0,0]}]]